sat.trackr.live / text

‹ back to catalog

STARLINK-37453

NORAD 68862 · 2026-094Z

PAYLOAD ACTIVE UNKNOWN

§ Identity

Operator
Country
US
Launch date
2026-04-26
Launch site
AFWTR
Launch vehicle
Mass (kg)
RCS (m²)

Purposes: comms

External: N2YO · Heavens-Above · Gunter

§ Orbital elements

Epoch: 2026-05-25T04:00:03.998880Z

Period
92.95 min
Inclination
97.2847°
Eccentricity
0.0001103
Mean motion
15.49170743 rev/d
Perigee alt
418.4 km
Apogee alt
419.9 km
Semi-major
6,797.3 km
B*
1.6731e-4
RAAN
159.8999°
Arg perigee
96.8264°
Mean anomaly
60.4400°
Rev number
567

§ Raw data

STARLINK-374531 68862U 26094Z   26145.16671295  .00009013  00000+0  16731-3 0  99992 68862  97.2847 159.8999 0001103  96.8264  60.4400 15.49170743  5672

JSON: /api/v1/satellites/68862 · /tle

For live sub-satellite position, see the globe view (requires WebGL).

§ Visibility from observer

Set your observer location to see the next 7 days of passes ≥ 10°. The values pass through the URL so the page stays shareable.

No JS? Fill the form by hand. The geolocation button needs JavaScript.